QPF
0.00 0.00 0.00 0.00 0.00 0.00 0.00 0.00 0.00 0.00 0.00 0.00 0.00 0.00 0.00 0.00 0.00 0.00 0.00 0.00 0.00 0.00 0.00 0.00 0.00 0.00 0.00 0.00 0.00 0.00 0.00 0.00 0.00 0.00 0.00 0.00 0.00 0.00 0.00 0.00 0.00 0.00
0.00 0.00 0.00 0.00 0.00 0.00 0.00 0.00 0.00 0.00 0.00 0.00 0.00 0.00 0.00 0.00 0.00 0.00 0.00 0.00 0.00 0.00 0.00 0.00 0.00 0.00 0.00 0.00 0.00 0.00 0.00 0.00 0.00 0.00 0.00 0.00 0.00 0.00 0.00 0.00 0.00 0.00
0.00 0.00 0.00 0.00 0.00 0.00 0.00 0.00 0.00 0.00 0.00 0.00 0.00 0.00 0.00 0.00 0.00 0.00 0.00 0.00 0.00 0.00 0.00 0.00 0.00 0.00 0.00 0.00 0.00 0.00 0.00 0.00 0.00 0.00 0.00 0.00 0.00 0.00 0.00 0.00 0.00 0.00
0.00 0.00 0.00 0.00 0.00 0.00 0.00 0.00 0.00 0.00 0.00 0.00 0.00 0.00 0.00 0.00 0.00 0.00 0.00 0.00 0.00 0.00 0.00 0.00 0.00 0.00 0.00 0.00 0.00 0.00 0.00 0.00 0.00 0.00 0.00 0.00 0.00 0.00 0.00 0.00 0.00 0.00
0.00 0.00 0.00 0.00 0.00 0.00 0.00 0.00 0.00 0.00 0.00 0.00 0.00 0.00 0.00 0.00 0.00 0.00 0.00 0.00 0.00 0.00 0.00 0.00 0.00 0.00 0.00 0.00 0.00 0.00 0.00 0.00 0.00 0.00 0.00 0.00 0.00 0.00 0.00 0.00 0.00 0.00
0.00 0.00 0.00 0.00 0.00 0.00 0.00 0.00 0.00 0.00 0.00 0.00 0.00 0.00 0.00 0.00 0.00 0.00 0.00 0.00 0.00 0.00 0.00 0.00 0.00 0.00 0.00 0.00 0.00 0.00 0.00 0.00 0.00 0.00 0.00 0.00 0.00 0.00 0.00 0.00 0.00 0.00
0.00 0.00 0.00 0.00 0.00 0.00 0.00 0.00 0.00 0.00 0.00 0.00 0.00 0.00 0.00 0.00 0.00 0.00 0.00 0.00 0.00 0.00 0.00 0.00 0.00 0.00 0.00 0.00 0.00 0.00 0.00 0.00 0.00 0.00 0.00 0.00 0.00 0.00 0.00 0.00 0.00 0.00
0.00 0.00 0.00 0.00 0.00 0.00 0.00 0.00 0.00 0.00 0.00 0.00 0.00 0.00 0.00 0.00 0.00 0.00 0.00 0.00 0.00 0.00 0.00 0.00 0.00 0.00 0.00 0.00 0.00 0.00 0.00 0.00 0.00 0.00 0.00 0.00 0.00 0.00 0.00 0.00 0.00 0.00
0.00 0.00 0.00 0.00 0.00 0.00 0.00 0.00 0.00 0.00 0.00 0.00 0.00 0.00 0.00 0.00 0.00 0.00 0.00 0.00 0.00 0.00 0.00 0.00 0.00 0.00 0.00 0.00 0.00 0.00 0.00 0.00 0.00 0.00 0.00 0.00 0.00 0.00 0.00 0.00 0.00 0.00
0.00 0.00 0.00 0.00 0.00 0.00 0.00 0.00 0.00 0.00 0.00 0.00 0.00 0.00 0.00 0.00 0.00 0.00 0.00 0.00 0.00 0.00 0.00 0.00 0.00 0.00 0.00 0.00 0.00 0.00 0.00 0.00 0.00 0.00 0.00 0.00 0.00 0.00 0.00 0.00 0.00 0.00
0.00 0.00 0.00 0.00 0.00 0.00 0.00 0.00 0.00 0.00 0.00 0.00 0.00 0.00 0.00 0.00 0.00 0.00 0.00 0.00 0.00 0.00 0.00 0.00 0.00 0.00 0.00 0.00 0.00 0.00 0.00 0.00 0.00 0.00 0.00 0.00 0.00 0.00 0.00 0.00 0.00 0.00
0.00 0.00 0.00 0.00 0.00 0.00 0.00 0.00 0.00 0.00 0.00 0.00 0.00 0.00 0.00 0.00 0.00 0.00 0.00 0.00 0.00 0.00 0.00 0.00 0.00 0.00 0.00 0.00 0.00 0.00 0.00 0.00 0.00 0.00 0.00 0.00 0.00 0.00 0.00 0.00 0.00 0.00
0.00 0.00 0.00 0.00 0.00 0.00 0.00 0.00 0.00 0.00 0.00 0.00 0.00 0.00 0.00 0.00 0.00 0.00 0.00 0.00 0.00 0.00 0.00 0.00 0.00 0.00 0.00 0.00 0.00 0.00 0.00 0.00 0.00 0.00 0.00 0.00 0.00 0.00 0.00 0.00 0.00 0.00
0.00 0.00 0.00 0.00 0.00 0.00 0.00 0.00 0.00 0.00 0.00 0.00 0.00 0.00 0.00 0.00 0.00 0.00 0.00 0.00 0.00 0.00 0.00 0.00 0.00 0.00 0.00 0.00 0.00 0.00 0.00 0.00 0.00 0.00 0.00 0.00 0.00 0.00 0.00 0.00 0.00 0.00
0.00 0.00 0.00 0.00 0.00 0.00 0.00 0.00 0.00 0.00 0.00 0.00 0.00 0.00 0.00 0.00 0.00 0.00 0.00 0.00 0.00 0.00 0.00 0.00 0.00 0.00 0.00 0.00 0.00 0.00 0.00 0.00 0.00 0.00 0.00 0.00 0.00 0.00 0.00 0.00 0.00 0.00
0.00 0.00 0.00 0.00 0.00 0.00 0.00 0.00 0.00 0.00 0.00 0.00 0.00 0.00 0.00 0.00 0.00 0.00 0.00 0.00 0.00 0.00 0.00 0.00 0.00 0.00 0.00 0.00 0.00 0.00 0.00 0.00 0.00 0.00 0.00 0.00 0.00 0.00 0.00 0.00 0.00 0.00
0.00 0.00 0.00 0.00 0.00 0.00 0.00 0.00 0.00 0.00 0.00 0.00 0.00 0.00 0.00 0.00 0.00 0.00 0.00 0.00 0.00 0.00 0.00 0.00 0.00 0.00 0.00 0.00 0.00 0.00 0.00 0.00 0.00 0.00 0.00 0.00 0.00 0.00 0.00 0.00 0.00 0.00
0.00 0.00 0.00 0.00 0.00 0.00 0.00 0.00 0.00 0.00 0.00 0.00 0.00 0.00 0.00 0.00 0.00 0.00 0.00 0.00 0.00 0.00 0.00 0.00 0.00 0.00 0.00 0.00 0.00 0.00 0.00 0.00 0.00 0.00 0.00 0.00 0.00 0.00 0.00 0.00 0.00 0.00
0.00 0.00 0.00 0.00 0.00 0.00 0.00 0.00 0.00 0.00 0.00 0.00 0.00 0.00 0.00 0.00 0.00 0.00 0.00 0.00 0.00 0.00 0.00 0.00 0.00 0.00 0.00 0.00 0.00 0.00 0.00 0.00 0.00 0.00 0.00 0.00 0.00 0.00 0.00 0.00 0.00 0.00
0.00 0.00 0.01 0.00 0.00 0.00 0.00 0.00 0.00 0.00 0.00 0.00 0.00 0.00 0.00 0.00 0.00 0.00 0.00 0.00 0.00 0.00 0.00 0.00 0.00 0.00 0.00 0.00 0.00 0.00 0.00 0.00 0.00 0.00 0.00 0.00 0.00 0.00 0.00 0.00 0.00 0.00
0.00 0.00 0.00 0.00 0.00 0.00 0.00 0.00 0.00 0.00 0.00 0.00 0.00 0.00 0.00 0.00 0.00 0.00 0.00 0.00 0.00 0.00 0.00 0.00 0.00 0.00 0.00 0.00 0.00 0.00 0.00 0.00 0.00 0.00 0.00 0.00 0.00 0.00 0.00 0.00 0.00 0.00
0.00 0.00 0.00 0.00 0.00 0.00 0.00 0.00 0.00 0.00 0.00 0.00 0.00 0.00 0.00 0.00 0.00 0.00 0.00 0.00 0.00 0.00 0.00 0.00 0.00 0.00 0.00 0.00 0.00 0.00 0.00 0.00 0.00 0.00 0.00 0.00 0.00 0.00 0.00 0.00 0.00 0.00
0.00 0.00 0.00 0.00 0.00 0.00 0.00 0.00 0.00 0.00 0.00 0.00 0.00 0.00 0.00 0.00 0.00 0.00 0.00 0.00 0.00 0.00 0.00 0.00 0.00 0.00 0.00 0.00 0.00 0.00 0.00 0.00 0.00 0.00 0.00 0.00 0.00 0.00 0.00 0.00 0.00 0.00
0.00 0.00 0.00 0.00 0.00 0.00 0.00 0.00 0.00 0.00 0.00 0.00 0.00 0.00 0.00 0.00 0.00 0.00 0.00 0.00 0.00 0.00 0.00 0.00 0.00 0.00 0.00 0.00 0.00 0.00 0.00 0.00 0.00 0.00 0.00 0.00 0.00 0.00 0.00 0.00 0.00 0.00
0.00 0.00 0.01 0.01 0.01 0.00 0.00 0.00 0.00 0.00 0.00 0.00 0.00 0.00 0.00 0.00 0.00 0.00 0.00 0.00 0.00 0.00 0.00 0.00 0.00 0.00 0.00 0.00 0.00 0.00 0.00 0.00 0.00 0.00 0.00 0.00 0.00 0.00 0.00 0.00 0.00 0.00
0.00 0.00 0.00 0.00 0.00 0.00 0.00 0.00 0.00 0.00 0.00 0.00 0.00 0.00 0.00 0.00 0.00 0.00 0.00 0.00 0.00 0.00 0.00 0.00 0.00 0.00 0.00 0.00 0.00 0.00 0.00 0.00 0.00 0.00 0.00 0.00 0.00 0.00 0.00 0.00 0.00 0.00
MSLP
1018.69 1018.89 1019.13 1019.45 1019.65 1019.69 1019.77 1019.89 1020.01 1020.25 1020.41 1020.53 1020.77 1020.89 1020.89 1020.81 1020.65 1020.61 1020.49 1020.49 1020.49 1020.49 1020.37 1020.29 1020.17 1020.05 1019.97 1019.97 1019.89 1019.93 1019.93 1020.05 1020.17 1020.25 1020.09 1019.89 1019.89 1019.85 1019.89 1019.89 1019.81 1019.73
1019.01 1019.21 1019.45 1019.69 1019.93 1020.01 1020.09 1020.17 1020.33 1020.45 1020.69 1020.81 1020.89 1020.93 1020.89 1020.89 1020.93 1020.81 1020.77 1020.65 1020.57 1020.57 1020.49 1020.37 1020.29 1020.17 1020.13 1020.13 1020.09 1020.21 1020.17 1020.33 1020.57 1020.41 1020.25 1020.13 1020.09 1019.97 1019.97 1019.93 1019.85 1019.65
1019.33 1019.45 1019.61 1019.85 1020.01 1020.21 1020.41 1020.49 1020.57 1020.73 1020.89 1020.93 1020.93 1021.01 1021.09 1021.01 1021.01 1020.93 1020.85 1020.73 1020.69 1020.61 1020.53 1020.45 1020.37 1020.29 1020.21 1020.29 1020.33 1020.45 1020.49 1020.61 1020.65 1020.49 1020.37 1020.37 1020.33 1020.21 1020.01 1019.93 1019.89 1019.77
1019.53 1019.65 1019.77 1019.85 1019.97 1020.21 1020.45 1020.57 1020.73 1020.81 1020.85 1020.93 1021.05 1021.09 1021.09 1021.13 1021.05 1020.97 1020.89 1020.81 1020.73 1020.73 1020.61 1020.57 1020.57 1020.49 1020.41 1020.49 1020.57 1020.65 1020.69 1020.77 1020.77 1020.69 1020.61 1020.49 1020.41 1020.33 1020.25 1020.17 1020.13 1020.01
1019.61 1019.69 1019.69 1019.69 1019.89 1020.09 1020.33 1020.57 1020.73 1020.89 1020.97 1021.09 1021.13 1021.21 1021.17 1021.17 1021.13 1021.05 1020.97 1020.97 1020.89 1020.85 1020.81 1020.73 1020.73 1020.73 1020.61 1020.65 1020.65 1020.69 1020.77 1020.85 1020.77 1020.69 1020.61 1020.61 1020.61 1020.53 1020.49 1020.53 1020.53 1020.41
1019.49 1019.61 1019.69 1019.93 1020.21 1020.49 1020.65 1020.69 1020.77 1020.97 1021.13 1021.21 1021.25 1021.25 1021.29 1021.25 1021.21 1021.21 1021.13 1021.09 1021.09 1021.05 1021.01 1020.97 1020.97 1020.97 1020.85 1020.81 1020.77 1020.77 1020.85 1020.89 1020.77 1020.73 1020.69 1020.73 1020.73 1020.61 1020.69 1020.77 1020.81 1020.73
1019.45 1019.65 1019.89 1020.09 1020.33 1020.57 1020.73 1020.81 1020.97 1021.09 1021.17 1021.21 1021.21 1021.33 1021.37 1021.41 1021.41 1021.37 1021.37 1021.29 1021.21 1021.21 1021.17 1021.17 1021.21 1021.29 1021.25 1021.17 1021.09 1020.97 1020.97 1020.97 1020.93 1020.93 1020.93 1021.01 1021.05 1021.01 1021.01 1021.05 1021.13 1021.05
1019.57 1019.69 1019.97 1020.29 1020.49 1020.69 1020.85 1020.97 1021.09 1021.17 1021.21 1021.29 1021.45 1021.49 1021.49 1021.57 1021.57 1021.53 1021.45 1021.41 1021.41 1021.41 1021.45 1021.53 1021.61 1021.69 1021.65 1021.53 1021.45 1021.25 1021.21 1021.13 1021.17 1021.25 1021.25 1021.41 1021.45 1021.53 1021.61 1021.57 1021.61 1021.61
1019.77 1020.01 1020.29 1020.49 1020.69 1020.85 1020.93 1020.97 1021.05 1021.13 1021.21 1021.49 1021.65 1021.73 1021.69 1021.69 1021.73 1021.69 1021.65 1021.61 1021.61 1021.69 1021.81 1022.01 1022.17 1022.21 1022.13 1021.93 1021.73 1021.49 1021.49 1021.45 1021.49 1021.49 1021.65 1021.77 1021.93 1022.05 1022.05 1022.05 1022.09 1022.09
1020.05 1020.29 1020.49 1020.69 1020.85 1020.97 1021.05 1021.05 1021.13 1021.21 1021.37 1021.57 1021.77 1021.89 1021.89 1021.89 1021.89 1021.89 1021.89 1021.89 1021.93 1022.05 1022.25 1022.49 1022.69 1022.69 1022.53 1022.33 1022.01 1021.73 1021.77 1021.77 1021.77 1021.81 1021.93 1022.05 1022.17 1022.25 1022.29 1022.33 1022.41 1022.41
1020.21 1020.45 1020.73 1020.85 1021.01 1021.09 1021.17 1021.21 1021.29 1021.41 1021.53 1021.73 1021.89 1021.97 1021.97 1021.97 1022.05 1022.05 1022.13 1022.21 1022.37 1022.53 1022.77 1022.97 1023.17 1023.17 1023.05 1022.77 1022.45 1022.01 1021.93 1021.97 1022.05 1022.13 1022.25 1022.33 1022.33 1022.37 1022.49 1022.57 1022.61 1022.69
1020.37 1020.61 1020.85 1021.01 1021.13 1021.25 1021.33 1021.41 1021.45 1021.57 1021.73 1021.93 1022.01 1022.17 1022.21 1022.25 1022.29 1022.29 1022.33 1022.49 1022.73 1022.97 1023.17 1023.37 1023.53 1023.65 1023.61 1023.37 1023.05 1022.69 1022.49 1022.25 1022.37 1022.45 1022.57 1022.57 1022.57 1022.77 1022.89 1022.89 1023.01 1023.01
1020.45 1020.73 1020.89 1021.05 1021.21 1021.29 1021.41 1021.49 1021.57 1021.69 1021.81 1022.01 1022.09 1022.21 1022.33 1022.37 1022.37 1022.49 1022.57 1022.73 1023.01 1023.29 1023.49 1023.65 1023.81 1023.97 1024.09 1023.93 1023.53 1023.25 1023.09 1022.81 1022.61 1022.73 1022.81 1022.85 1022.97 1023.09 1023.17 1023.25 1023.33 1023.21
1020.61 1020.77 1020.97 1021.13 1021.29 1021.41 1021.57 1021.73 1021.89 1022.01 1022.09 1022.17 1022.25 1022.37 1022.41 1022.41 1022.53 1022.69 1022.81 1022.97 1023.25 1023.49 1023.77 1023.93 1024.09 1024.25 1024.45 1024.45 1024.13 1023.89 1023.57 1023.25 1022.77 1023.01 1023.09 1023.13 1023.21 1023.29 1023.41 1023.49 1023.45 1023.33
1020.65 1020.85 1021.05 1021.29 1021.45 1021.61 1021.77 1021.97 1022.13 1022.25 1022.37 1022.45 1022.49 1022.53 1022.53 1022.61 1022.73 1022.89 1023.09 1023.25 1023.45 1023.69 1023.97 1024.25 1024.45 1024.69 1024.97 1025.05 1024.73 1024.33 1023.97 1023.65 1023.09 1023.21 1023.29 1023.37 1023.45 1023.53 1023.57 1023.53 1023.49 1023.41
1020.69 1020.93 1021.17 1021.41 1021.65 1021.85 1022.01 1022.09 1022.21 1022.33 1022.49 1022.61 1022.73 1022.77 1022.85 1022.89 1022.97 1023.17 1023.33 1023.53 1023.73 1023.97 1024.25 1024.53 1024.77 1024.97 1025.25 1025.25 1025.17 1024.93 1024.37 1024.01 1023.41 1023.37 1023.41 1023.49 1023.57 1023.65 1023.69 1023.65 1023.65 1023.57
1020.77 1021.01 1021.25 1021.53 1021.77 1021.93 1022.09 1022.21 1022.37 1022.53 1022.69 1022.85 1022.97 1023.09 1023.13 1023.17 1023.29 1023.45 1023.65 1023.81 1024.01 1024.25 1024.53 1024.77 1025.05 1025.33 1025.21 1024.93 1024.65 1024.77 1024.69 1024.29 1023.69 1023.45 1023.45 1023.49 1023.57 1023.65 1023.77 1023.85 1023.77 1023.69
1020.89 1021.13 1021.37 1021.61 1021.81 1022.01 1022.17 1022.37 1022.53 1022.73 1022.93 1023.13 1023.25 1023.41 1023.45 1023.45 1023.53 1023.65 1023.85 1024.09 1024.25 1024.49 1024.77 1025.09 1025.29 1025.49 1025.25 1024.97 1024.65 1024.37 1024.61 1024.53 1023.81 1023.41 1023.41 1023.45 1023.45 1023.57 1023.77 1023.97 1024.01 1023.85
1020.93 1021.21 1021.45 1021.65 1021.89 1022.05 1022.25 1022.49 1022.73 1022.93 1023.17 1023.37 1023.57 1023.65 1023.69 1023.77 1023.81 1023.85 1024.05 1024.29 1024.49 1024.69 1025.05 1025.41 1025.61 1025.73 1025.41 1025.13 1024.81 1024.45 1024.29 1024.09 1023.69 1023.33 1023.37 1023.37 1023.29 1023.57 1023.89 1024.09 1024.13 1024.05
1020.97 1021.29 1021.57 1021.81 1022.01 1022.17 1022.37 1022.57 1022.89 1023.21 1023.45 1023.57 1023.73 1023.89 1024.05 1024.13 1024.09 1024.13 1024.33 1024.53 1024.69 1024.85 1025.21 1025.61 1025.89 1025.89 1025.53 1025.25 1025.01 1024.61 1024.37 1024.05 1023.49 1023.25 1023.25 1023.29 1023.33 1023.73 1023.97 1024.09 1024.17 1024.21
1021.13 1021.41 1021.69 1021.93 1022.13 1022.37 1022.61 1022.85 1023.09 1023.29 1023.45 1023.65 1023.77 1023.97 1024.25 1024.37 1024.45 1024.45 1024.57 1024.73 1024.89 1025.05 1025.29 1025.65 1025.97 1025.89 1025.57 1025.29 1025.09 1024.65 1024.33 1023.81 1023.33 1023.29 1023.21 1023.33 1023.37 1023.69 1023.93 1024.09 1024.17 1024.21
1021.21 1021.49 1021.77 1022.05 1022.25 1022.49 1022.77 1023.01 1023.25 1023.45 1023.65 1023.85 1024.01 1024.25 1024.45 1024.57 1024.65 1024.65 1024.73 1024.85 1025.05 1025.29 1025.53 1025.73 1025.89 1025.81 1025.65 1025.49 1025.21 1024.81 1024.45 1023.97 1023.33 1023.41 1023.37 1023.37 1023.45 1023.73 1023.89 1024.05 1024.13 1024.13
1021.29 1021.57 1021.81 1022.05 1022.33 1022.61 1022.89 1023.17 1023.41 1023.57 1023.73 1023.93 1024.21 1024.41 1024.69 1024.89 1025.01 1025.05 1025.05 1025.09 1025.17 1025.41 1025.73 1025.93 1025.93 1025.93 1025.85 1025.69 1025.49 1025.17 1024.73 1024.21 1023.53 1023.53 1023.49 1023.53 1023.57 1023.61 1024.01 1024.17 1024.13 1024.01
1021.37 1021.65 1021.97 1022.17 1022.45 1022.73 1022.97 1023.21 1023.41 1023.65 1023.81 1023.97 1024.21 1024.49 1024.81 1025.05 1025.21 1025.33 1025.41 1025.45 1025.49 1025.61 1025.81 1026.01 1026.05 1026.09 1026.01 1025.89 1025.65 1025.41 1025.05 1024.61 1024.01 1024.05 1024.09 1023.81 1023.69 1023.69 1023.85 1024.17 1024.17 1023.93
1021.57 1021.89 1022.17 1022.45 1022.69 1022.97 1023.13 1023.33 1023.53 1023.73 1023.89 1024.01 1024.21 1024.41 1024.69 1024.89 1025.09 1025.33 1025.49 1025.61 1025.73 1025.77 1025.77 1025.89 1026.05 1026.13 1026.09 1026.01 1025.89 1025.69 1025.37 1024.93 1024.61 1024.69 1024.69 1024.61 1024.01 1023.97 1023.97 1024.05 1024.01 1023.93
1022.05 1022.25 1022.45 1022.65 1022.85 1022.97 1023.13 1023.33 1023.57 1023.81 1024.05 1024.17 1024.25 1024.37 1024.61 1024.73 1024.89 1025.13 1025.45 1025.69 1025.77 1025.81 1025.81 1025.89 1026.01 1026.13 1026.13 1026.09 1026.01 1025.85 1025.61 1025.29 1025.09 1025.21 1025.21 1025.09 1024.45 1024.17 1024.17 1024.21 1024.13 1024.05
Thickness
5645 5644 5643 5642 5642 5642 5642 5641 5641 5639 5638 5637 5635 5633 5633 5633 5633 5633 5633 5633 5632 5631 5631 5630 5630 5630 5629 5628 5627 5626 5624 5622 5619 5618 5617 5617 5616 5614 5613 5611 5611 5610
5641 5641 5640 5639 5638 5638 5637 5637 5636 5634 5633 5632 5632 5631 5631 5630 5629 5630 5629 5629 5629 5628 5627 5627 5626 5626 5625 5624 5622 5621 5619 5617 5614 5613 5613 5612 5610 5610 5609 5607 5606 5606
5637 5637 5637 5636 5635 5634 5632 5632 5632 5631 5630 5629 5629 5628 5627 5627 5626 5626 5626 5626 5626 5625 5624 5624 5623 5623 5621 5620 5618 5616 5614 5611 5609 5609 5608 5607 5606 5605 5604 5603 5602 5602
5634 5633 5634 5633 5633 5632 5630 5629 5628 5628 5627 5627 5626 5625 5624 5623 5623 5623 5623 5622 5622 5621 5621 5620 5618 5618 5617 5615 5613 5611 5609 5607 5605 5605 5604 5603 5601 5600 5600 5598 5597 5596
5632 5631 5631 5631 5631 5629 5628 5627 5626 5625 5624 5623 5623 5621 5620 5620 5619 5620 5619 5618 5618 5617 5616 5615 5614 5613 5612 5611 5609 5608 5605 5603 5602 5601 5600 5598 5597 5596 5594 5592 5590 5589
5631 5630 5630 5628 5627 5625 5625 5624 5623 5622 5620 5620 5619 5618 5617 5617 5616 5615 5615 5615 5614 5613 5612 5611 5610 5609 5608 5606 5605 5603 5601 5600 5599 5597 5596 5594 5592 5590 5588 5586 5584 5582
5630 5628 5627 5626 5624 5622 5621 5620 5619 5618 5617 5616 5615 5614 5614 5613 5612 5612 5611 5610 5609 5609 5607 5606 5605 5603 5602 5601 5599 5598 5597 5595 5594 5592 5590 5587 5585 5583 5581 5579 5577 5575
5627 5625 5624 5622 5620 5619 5618 5617 5616 5615 5614 5612 5612 5610 5610 5609 5608 5607 5607 5606 5605 5604 5602 5601 5599 5597 5595 5595 5594 5593 5592 5590 5588 5586 5583 5581 5578 5575 5574 5571 5569 5567
5623 5621 5619 5617 5616 5614 5614 5614 5613 5612 5611 5609 5607 5606 5605 5605 5604 5603 5602 5602 5601 5599 5597 5595 5592 5590 5589 5588 5588 5588 5586 5584 5582 5580 5577 5574 5571 5568 5566 5563 5561 5559
5618 5617 5615 5614 5613 5612 5612 5611 5610 5610 5608 5606 5603 5602 5601 5601 5599 5599 5598 5597 5595 5593 5590 5588 5585 5583 5582 5582 5582 5582 5580 5578 5576 5574 5571 5567 5565 5562 5559 5557 5554 5551
5615 5613 5611 5610 5610 5609 5608 5607 5606 5605 5603 5601 5600 5597 5597 5596 5595 5595 5593 5592 5590 5587 5584 5581 5578 5576 5575 5575 5576 5576 5575 5572 5570 5567 5564 5561 5559 5556 5553 5549 5547 5544
5612 5610 5608 5607 5606 5605 5604 5603 5603 5601 5599 5597 5595 5593 5593 5592 5591 5590 5588 5586 5583 5580 5577 5575 5572 5569 5568 5568 5568 5569 5567 5566 5564 5560 5558 5555 5552 5548 5545 5542 5539 5536
5608 5606 5605 5603 5602 5601 5600 5600 5598 5597 5595 5593 5592 5590 5589 5588 5587 5585 5583 5581 5578 5575 5571 5569 5566 5564 5561 5561 5561 5561 5559 5558 5557 5554 5551 5548 5545 5541 5537 5534 5531 5528
5605 5603 5602 5601 5600 5598 5596 5595 5593 5592 5590 5588 5587 5586 5584 5584 5581 5579 5577 5575 5572 5569 5566 5563 5561 5558 5555 5554 5554 5553 5551 5552 5551 5547 5544 5541 5538 5534 5531 5527 5524 5523
5602 5601 5599 5597 5596 5594 5592 5591 5589 5587 5585 5584 5582 5581 5579 5578 5576 5574 5572 5569 5566 5563 5561 5558 5555 5552 5549 5546 5546 5546 5545 5545 5545 5541 5538 5535 5532 5528 5525 5522 5519 5517
5599 5598 5596 5593 5591 5590 5588 5587 5584 5583 5581 5579 5577 5575 5574 5573 5570 5568 5566 5563 5561 5558 5555 5553 5550 5547 5544 5542 5541 5540 5539 5539 5539 5536 5532 5530 5526 5523 5520 5517 5514 5511
5596 5593 5591 5589 5587 5585 5584 5581 5580 5578 5576 5573 5572 5570 5568 5567 5565 5562 5560 5557 5555 5553 5550 5547 5544 5542 5541 5540 5538 5536 5534 5533 5533 5531 5528 5525 5522 5518 5514 5511 5508 5505
5592 5590 5587 5585 5583 5581 5579 5577 5575 5573 5570 5568 5566 5564 5562 5561 5559 5557 5554 5552 5550 5548 5545 5541 5539 5537 5536 5536 5535 5533 5530 5528 5528 5527 5524 5521 5518 5514 5509 5505 5502 5498
5588 5587 5584 5581 5580 5578 5576 5573 5570 5567 5565 5562 5561 5558 5557 5555 5553 5552 5549 5547 5545 5542 5539 5535 5532 5531 5531 5530 5530 5529 5526 5525 5525 5523 5520 5517 5515 5510 5504 5500 5496 5493
5585 5583 5580 5577 5575 5573 5571 5569 5565 5562 5560 5557 5555 5553 5550 5549 5547 5546 5544 5541 5540 5537 5533 5530 5526 5525 5526 5526 5524 5524 5522 5521 5521 5520 5517 5514 5510 5505 5499 5495 5491 5488
5581 5578 5575 5573 5571 5568 5566 5563 5560 5557 5555 5552 5550 5547 5544 5543 5541 5540 5539 5536 5534 5532 5528 5525 5522 5521 5521 5521 5519 5519 5518 5518 5518 5516 5513 5509 5505 5500 5495 5491 5487 5483
5577 5574 5572 5569 5566 5564 5561 5557 5554 5552 5549 5547 5544 5542 5539 5537 5536 5535 5534 5532 5530 5527 5523 5520 5518 5517 5516 5515 5514 5513 5513 5514 5514 5511 5508 5505 5501 5496 5491 5486 5482 5478
5574 5570 5567 5565 5562 5559 5556 5552 5549 5546 5545 5542 5539 5537 5534 5532 5530 5529 5528 5527 5525 5521 5518 5515 5513 5512 5511 5509 5509 5508 5508 5508 5508 5506 5502 5499 5496 5491 5486 5481 5477 5474
5570 5566 5563 5560 5557 5554 5551 5548 5544 5542 5540 5539 5536 5533 5530 5527 5526 5525 5522 5521 5519 5516 5514 5511 5509 5507 5505 5504 5503 5502 5502 5502 5501 5498 5495 5492 5491 5487 5482 5477 5474 5471
5564 5561 5558 5555 5552 5549 5546 5543 5540 5538 5535 5534 5532 5530 5527 5525 5523 5521 5518 5515 5513 5512 5510 5507 5505 5503 5500 5499 5498 5496 5496 5495 5494 5491 5487 5485 5484 5481 5477 5474 5470 5467
5558 5555 5552 5549 5547 5544 5541 5539 5536 5534 5532 5531 5529 5527 5525 5523 5521 5517 5514 5512 5509 5508 5506 5504 5501 5499 5496 5495 5493 5491 5490 5489 5487 5483 5480 5478 5478 5477 5473 5470 5467 5464